User: anonymous   Login
Location: Berg
(48.4333°N, 13.9167°E)
Time: 15:36:14
(UTC+00:00)
Language:

ATLAS CENTAUR R/B - Orbit

View from above orbital plane
View from above orbital plane
View from above satellite
View from above satellite

Ground track
Ground track

The orbit data is extracted from the following two-line orbital elements,

1 38770U 12048N   20331.22923966 0.00000708  00000-0  49252-4 0    02
2 38770  64.6552  10.9011 0135235  83.6243 276.4387 14.98036611    08
Epoch (UTC): 26 November 2020 05:30:06
Eccentricity: 0.0135235
inclination: 64.6552°
perigee height: 479 km
apogee height: 667 km
right ascension of ascending node: 10.9011°
argument of perigee: 83.6243°
revolutions per day: 14.98036611
mean anomaly at epoch: 276.4387°
orbit number at epoch: 0

The dashed part of the orbit path shows where the satellite is in the earth's shadow,  

DLR